RCH3811 ENOL-ETAR

Flight info

Callsign RCH3811
Flight time 2h 5m
Altitude 35000
Route UVEP1D UVEPI OSVIG M604 SVA M609 RASVI TUSKA MALYK ASBON
Aircraft K35R/H-SDE1E2E3FGHIJ2J3J4J5M1RWXY/LB1D1

Departure

Time 2026-05-05 18:06
Airport Ørland Airport (ENOL)

Arrival

Time 2026-05-05 20:12
Airport Ramstein Air Base (ETAR)
Time Latitude Longitude Altitude Speed Heading
2026-05-05 17:42 63.69755 9.61527 43 ft 0 kts 277°
2026-05-05 18:01 63.69755 9.61525 43 ft 1 kts 277°
2026-05-05 18:02 63.69750 9.61497 40 ft 3 kts 246°
2026-05-05 18:02 63.69726 9.61464 41 ft 6 kts 199°
2026-05-05 18:02 63.69682 9.61437 43 ft 6 kts 207°
2026-05-05 18:02 63.69666 9.61359 43 ft 5 kts 259°
2026-05-05 18:03 63.69648 9.61298 41 ft 6 kts 229°
2026-05-05 18:03 63.69598 9.61258 43 ft 10 kts 189°
2026-05-05 18:03 63.69523 9.61293 43 ft 13 kts 153°
2026-05-05 18:03 63.69430 9.61398 44 ft 17 kts 154°
2026-05-05 18:04 63.69315 9.61524 46 ft 20 kts 153°
2026-05-05 18:04 63.69179 9.61677 47 ft 24 kts 154°
2026-05-05 18:04 63.69029 9.61838 47 ft 23 kts 154°
2026-05-05 18:04 63.68887 9.61979 47 ft 21 kts 168°
2026-05-05 18:05 63.68772 9.61982 49 ft 12 kts 193°
2026-05-05 18:05 63.68722 9.61866 48 ft 11 kts 241°
2026-05-05 18:05 63.68708 9.61738 47 ft 5 kts 284°
2026-05-05 18:05 63.68739 9.61670 47 ft 8 kts 329°
2026-05-05 18:06 63.68846 9.61556 46 ft 43 kts 334°
2026-05-05 18:06 63.69138 9.61229 44 ft 97 kts 334°
2026-05-05 18:06 63.70325 9.59933 57 ft 176 kts 328°
2026-05-05 18:06 63.71450 9.58756 760 ft 176 kts 329°
2026-05-05 18:07 63.72521 9.57582 1789 ft 168 kts 327°
2026-05-05 18:07 63.73408 9.55840 2436 ft 172 kts 298°
2026-05-05 18:07 63.73606 9.53263 3203 ft 174 kts 259°
2026-05-05 18:07 63.72950 9.50758 3526 ft 204 kts 227°
2026-05-05 18:08 63.71640 9.48934 3759 ft 238 kts 208°
2026-05-05 18:08 63.70056 9.47363 4100 ft 258 kts 207°
2026-05-05 18:08 63.68405 9.45817 4981 ft 262 kts 206°
2026-05-05 18:08 63.66707 9.44269 5957 ft 265 kts 206°
2026-05-05 18:09 63.64976 9.42706 6860 ft 269 kts 206°
2026-05-05 18:09 63.63226 9.41125 7761 ft 272 kts 205°
2026-05-05 18:09 63.61456 9.39529 8631 ft 276 kts 205°
2026-05-05 18:09 63.59658 9.37915 9503 ft 279 kts 205°
2026-05-05 18:10 63.57838 9.36275 10155 ft 291 kts 205°
2026-05-05 18:10 63.55867 9.34486 10292 ft 319 kts 205°
2026-05-05 18:10 63.53727 9.32555 10513 ft 341 kts 205°
2026-05-05 18:10 63.51503 9.30568 11307 ft 346 kts 204°
2026-05-05 18:11 63.49253 9.28564 12156 ft 349 kts 204°
2026-05-05 18:11 63.47015 9.26577 12927 ft 353 kts 204°
2026-05-05 18:11 63.44714 9.24532 13673 ft 357 kts 204°
2026-05-05 18:11 63.42393 9.22473 14370 ft 361 kts 204°
2026-05-05 18:12 63.39956 9.20974 14975 ft 367 kts 190°
2026-05-05 18:12 63.37380 9.20650 15608 ft 374 kts 182°
2026-05-05 18:12 63.34759 9.20830 16235 ft 378 kts 180°
2026-05-05 18:12 63.32118 9.21161 16881 ft 382 kts 179°
2026-05-05 18:13 63.29445 9.21509 17507 ft 386 kts 179°
2026-05-05 18:13 63.26754 9.21830 18120 ft 389 kts 179°
2026-05-05 18:13 63.24038 9.22123 18655 ft 393 kts 180°
2026-05-05 18:13 63.21298 9.22390 19172 ft 396 kts 180°
2026-05-05 18:14 63.18533 9.22645 19658 ft 399 kts 180°
2026-05-05 18:14 63.15787 9.22891 20153 ft 402 kts 180°
2026-05-05 18:14 63.12940 9.23142 20648 ft 405 kts 180°
2026-05-05 18:14 63.10109 9.23394 21132 ft 409 kts 180°
2026-05-05 18:15 63.07288 9.23640 21616 ft 412 kts 180°
2026-05-05 18:15 63.04418 9.23888 22120 ft 415 kts 180°
2026-05-05 18:15 63.01509 9.24138 22615 ft 419 kts 180°
2026-05-05 18:15 62.98584 9.24391 23109 ft 423 kts 180°
2026-05-05 18:16 62.95626 9.24647 23603 ft 427 kts 180°
2026-05-05 18:16 62.92648 9.24905 24012 ft 430 kts 180°
2026-05-05 18:16 62.89647 9.25164 24433 ft 433 kts 180°
2026-05-05 18:16 62.86622 9.25426 24859 ft 437 kts 181°
2026-05-05 18:17 62.83574 9.25688 25304 ft 440 kts 181°
2026-05-05 18:17 62.80497 9.25953 25724 ft 444 kts 181°
2026-05-05 18:17 62.77402 9.26219 26156 ft 447 kts 181°
2026-05-05 18:17 62.74278 9.26485 26582 ft 451 kts 181°
2026-05-05 18:18 62.71136 9.26753 26966 ft 454 kts 181°
2026-05-05 18:18 62.67960 9.27023 27365 ft 458 kts 182°
2026-05-05 18:18 62.64765 9.27293 27763 ft 461 kts 182°
2026-05-05 18:18 62.61550 9.27562 28133 ft 464 kts 182°
2026-05-05 18:19 62.58303 9.27835 28519 ft 467 kts 182°
2026-05-05 18:19 62.55051 9.28107 28905 ft 471 kts 182°
2026-05-05 18:19 62.51759 9.28379 29279 ft 474 kts 182°
2026-05-05 18:19 62.48504 9.28650 29673 ft 477 kts 183°
2026-05-05 18:20 62.45172 9.28928 30010 ft 480 kts 183°
2026-05-05 18:20 62.42908 9.29116 30192 ft 482 kts 183°
2026-05-05 18:20 62.38460 9.29486 30566 ft 485 kts 183°
2026-05-05 18:20 62.35076 9.29771 30924 ft 485 kts 182°
2026-05-05 18:21 62.31699 9.30055 31263 ft 485 kts 183°
2026-05-05 18:21 62.28322 9.30339 31618 ft 485 kts 183°
2026-05-05 18:21 62.24960 9.30619 31981 ft 484 kts 183°
2026-05-05 18:21 62.21589 9.30899 32309 ft 484 kts 183°
2026-05-05 18:22 62.19356 9.31083 32534 ft 484 kts 183°
2026-05-05 18:22 62.15988 9.31360 32864 ft 483 kts 183°
2026-05-05 18:22 62.12629 9.31634 33185 ft 483 kts 183°
2026-05-05 18:22 62.09270 9.31907 33519 ft 482 kts 183°
2026-05-05 18:23 62.05927 9.32178 33823 ft 482 kts 183°
2026-05-05 18:23 62.02573 9.32451 34084 ft 482 kts 183°
2026-05-05 18:23 61.99214 9.32723 34312 ft 481 kts 183°
2026-05-05 18:23 61.95868 9.32994 34531 ft 481 kts 183°
2026-05-05 18:24 61.92527 9.33265 34769 ft 482 kts 183°
2026-05-05 18:24 61.89168 9.33537 34872 ft 482 kts 183°
2026-05-05 18:24 61.85809 9.33807 34892 ft 484 kts 183°
2026-05-05 18:25 61.79065 9.34347 34897 ft 485 kts 183°
2026-05-05 18:25 61.72308 9.34888 34898 ft 485 kts 183°
2026-05-05 18:26 61.65569 9.35422 34902 ft 485 kts 184°
2026-05-05 18:26 61.58825 9.35956 34902 ft 485 kts 184°
2026-05-05 18:27 61.52078 9.36482 34899 ft 485 kts 184°
2026-05-05 18:27 61.45372 9.37007 34903 ft 485 kts 184°
2026-05-05 18:28 61.35255 9.37797 34903 ft 485 kts 184°
2026-05-05 18:28 61.28525 9.38322 34898 ft 485 kts 184°
2026-05-05 18:29 61.21771 9.38845 34899 ft 484 kts 184°
2026-05-05 18:29 61.15034 9.39359 34897 ft 484 kts 184°
2026-05-05 18:30 61.08311 9.39777 34898 ft 481 kts 188°
2026-05-05 18:30 61.01830 9.37639 34897 ft 467 kts 201°
2026-05-05 18:31 60.95609 9.33962 34900 ft 465 kts 203°
2026-05-05 18:31 60.89383 9.30312 34907 ft 465 kts 202°
2026-05-05 18:32 60.83133 9.26858 34903 ft 465 kts 202°
2026-05-05 18:32 60.76919 9.23511 34899 ft 464 kts 202°
2026-05-05 18:33 60.70673 9.20166 34899 ft 463 kts 202°
2026-05-05 18:33 60.64453 9.16846 34894 ft 462 kts 202°
2026-05-05 18:34 60.58221 9.13528 34902 ft 462 kts 202°
2026-05-05 18:34 60.52020 9.10242 34904 ft 461 kts 202°
2026-05-05 18:35 60.45817 9.06968 34904 ft 459 kts 202°
2026-05-05 18:35 60.39634 9.03711 34913 ft 459 kts 202°
2026-05-05 18:36 60.33452 9.00472 34915 ft 458 kts 202°
2026-05-05 18:36 60.27328 8.97275 34899 ft 457 kts 202°
2026-05-05 18:37 60.21170 8.94107 34921 ft 456 kts 202°
2026-05-05 18:37 60.15036 8.90955 34916 ft 455 kts 202°
2026-05-05 18:38 60.08912 8.87802 34921 ft 454 kts 202°
2026-05-05 18:38 60.02785 8.84652 34928 ft 453 kts 202°
2026-05-05 18:39 59.96693 8.81530 34926 ft 453 kts 202°
2026-05-05 18:39 59.90586 8.78412 34926 ft 453 kts 202°
2026-05-05 18:40 59.84514 8.75326 34927 ft 453 kts 202°
2026-05-05 18:40 59.78400 8.72233 34930 ft 453 kts 202°
2026-05-05 18:41 59.72299 8.69157 34933 ft 452 kts 202°
2026-05-05 18:41 59.66190 8.66088 34930 ft 452 kts 202°
2026-05-05 18:42 59.60096 8.63037 34928 ft 452 kts 202°
2026-05-05 18:42 59.53996 8.59994 34930 ft 451 kts 202°
2026-05-05 18:43 59.47912 8.56976 34932 ft 451 kts 201°
2026-05-05 18:43 59.41844 8.53994 34939 ft 451 kts 201°
2026-05-05 18:44 59.35758 8.51018 34935 ft 450 kts 201°
2026-05-05 18:44 59.29668 8.48035 34937 ft 450 kts 201°
2026-05-05 18:45 59.23585 8.45060 34925 ft 450 kts 201°
2026-05-05 18:45 59.17519 8.42115 34942 ft 450 kts 201°
2026-05-05 18:46 59.11444 8.39154 34942 ft 450 kts 201°
2026-05-05 18:46 59.05363 8.36206 34939 ft 450 kts 201°
2026-05-05 18:47 58.99319 8.33288 34947 ft 451 kts 201°
2026-05-05 18:47 58.93238 8.30372 34946 ft 451 kts 201°
2026-05-05 18:48 58.87146 8.27475 34939 ft 451 kts 201°
2026-05-05 18:48 58.81060 8.24579 34954 ft 451 kts 201°
2026-05-05 18:49 58.74953 8.21676 34949 ft 451 kts 201°
2026-05-05 18:49 58.68865 8.18793 34939 ft 451 kts 201°
2026-05-05 18:50 58.62767 8.15920 34938 ft 451 kts 201°
2026-05-05 18:50 58.56681 8.13055 34940 ft 451 kts 201°
2026-05-05 18:51 58.50596 8.10198 34945 ft 450 kts 201°
2026-05-05 18:51 58.44531 8.07367 34939 ft 450 kts 201°
2026-05-05 18:52 58.38448 8.04536 34937 ft 450 kts 201°
2026-05-05 18:52 58.32358 8.01714 34934 ft 450 kts 201°
2026-05-05 18:53 58.26307 7.98920 34941 ft 450 kts 201°
2026-05-05 18:53 58.20224 7.96115 34933 ft 450 kts 200°
2026-05-05 18:54 58.14134 7.93323 34933 ft 450 kts 200°
2026-05-05 18:54 58.07963 7.91001 34934 ft 459 kts 191°
2026-05-05 18:55 58.01491 7.91520 34939 ft 470 kts 181°
2026-05-05 18:55 57.94979 7.93038 34943 ft 471 kts 180°
2026-05-05 18:56 57.88505 7.94417 34947 ft 470 kts 181°
2026-05-05 18:56 57.82004 7.95630 34942 ft 469 kts 181°
2026-05-05 18:57 57.75509 7.96788 34944 ft 469 kts 181°
2026-05-05 18:57 57.69020 7.97941 34947 ft 468 kts 181°
2026-05-05 18:58 57.62564 7.99092 34954 ft 467 kts 181°
2026-05-05 18:58 57.56088 8.00241 34956 ft 467 kts 181°
2026-05-05 18:59 57.49615 8.01387 34959 ft 467 kts 181°
2026-05-05 18:59 57.43155 8.02527 34951 ft 466 kts 181°
2026-05-05 19:00 57.36699 8.03661 34961 ft 465 kts 181°
2026-05-05 19:00 57.30256 8.04767 34959 ft 464 kts 182°
2026-05-05 19:01 57.23856 8.04814 34972 ft 457 kts 188°
2026-05-05 19:01 57.17498 8.04208 34971 ft 457 kts 189°
2026-05-05 19:02 57.11147 8.03600 34971 ft 457 kts 189°
2026-05-05 19:02 57.04831 8.03067 34969 ft 457 kts 188°
2026-05-05 19:03 56.98478 8.02562 34967 ft 457 kts 188°
2026-05-05 19:03 56.92117 8.02063 34976 ft 457 kts 188°
2026-05-05 19:04 56.85762 8.01562 34984 ft 457 kts 188°
2026-05-05 19:04 56.79405 8.01062 34969 ft 457 kts 188°
2026-05-05 19:05 56.73057 8.00567 34977 ft 457 kts 188°
2026-05-05 19:05 56.66736 8.00072 34974 ft 457 kts 188°
2026-05-05 19:06 56.60377 7.99576 34977 ft 457 kts 188°
2026-05-05 19:06 56.54025 7.99083 34977 ft 457 kts 188°
2026-05-05 19:07 56.48699 7.98670 34977 ft 457 kts 188°
2026-05-05 19:07 56.41315 7.98108 34979 ft 457 kts 188°
2026-05-05 19:08 56.36028 7.97704 34975 ft 457 kts 188°
2026-05-05 19:08 56.29667 7.97217 34977 ft 457 kts 187°
2026-05-05 19:09 56.23320 7.96732 34971 ft 457 kts 187°
2026-05-05 19:09 56.16962 7.96247 34975 ft 457 kts 187°
2026-05-05 19:10 56.10608 7.95766 34972 ft 456 kts 187°
2026-05-05 19:10 56.04259 7.95286 34973 ft 456 kts 187°
2026-05-05 19:11 55.97963 7.94811 34972 ft 456 kts 187°
2026-05-05 19:11 55.91610 7.94338 34972 ft 456 kts 187°
2026-05-05 19:12 55.85266 7.93862 34969 ft 456 kts 187°
2026-05-05 19:12 55.78917 7.93385 34960 ft 456 kts 187°
2026-05-05 19:13 55.72577 7.92912 34962 ft 456 kts 187°
2026-05-05 19:13 55.66225 7.92441 34961 ft 457 kts 186°
2026-05-05 19:14 55.59914 7.91978 34956 ft 457 kts 186°
2026-05-05 19:14 55.53549 7.91515 34962 ft 457 kts 186°
2026-05-05 19:15 55.47191 7.91050 34960 ft 457 kts 186°
2026-05-05 19:15 55.40824 7.90582 34957 ft 458 kts 186°
2026-05-05 19:16 55.34462 7.90117 34957 ft 458 kts 186°
2026-05-05 19:16 55.28100 7.89653 34954 ft 458 kts 186°
2026-05-05 19:17 55.21722 7.89190 34955 ft 459 kts 186°
2026-05-05 19:17 55.15344 7.88731 34960 ft 459 kts 186°
2026-05-05 19:18 55.12163 7.88502 35219 ft 457 kts 186°
2026-05-05 19:18 55.08985 7.88274 35457 ft 457 kts 186°
2026-05-05 19:18 55.05815 7.88047 35672 ft 456 kts 186°
2026-05-05 19:18 55.02641 7.87819 35883 ft 456 kts 186°
2026-05-05 19:19 54.99477 7.87589 36091 ft 455 kts 186°
2026-05-05 19:19 54.96308 7.87345 36297 ft 455 kts 186°
2026-05-05 19:19 54.93154 7.87096 36497 ft 454 kts 186°
2026-05-05 19:19 54.89998 7.86845 36689 ft 454 kts 187°
2026-05-05 19:20 54.86881 7.86596 36888 ft 453 kts 187°
2026-05-05 19:20 54.83698 7.86343 36930 ft 453 kts 187°
2026-05-05 19:20 54.77449 7.85846 36943 ft 452 kts 187°
2026-05-05 19:21 54.71167 7.85351 36938 ft 452 kts 187°
2026-05-05 19:21 54.64883 7.84862 36941 ft 451 kts 187°
2026-05-05 19:22 54.58615 7.84371 36939 ft 450 kts 187°
2026-05-05 19:22 54.52372 7.83883 36935 ft 450 kts 187°
2026-05-05 19:23 54.46141 7.83398 36935 ft 450 kts 187°
2026-05-05 19:23 54.39886 7.82914 36931 ft 449 kts 187°
2026-05-05 19:24 54.33680 7.82434 36929 ft 449 kts 187°
2026-05-05 19:24 54.27436 7.81952 36927 ft 449 kts 187°
2026-05-05 19:25 54.21203 7.81475 36927 ft 449 kts 187°
2026-05-05 19:25 54.14965 7.80996 36927 ft 448 kts 187°
2026-05-05 19:26 54.08732 7.80521 36924 ft 448 kts 186°
2026-05-05 19:26 54.02524 7.80051 36927 ft 448 kts 186°
2026-05-05 19:27 53.96286 7.79579 36918 ft 448 kts 186°
2026-05-05 19:27 53.90045 7.79105 36923 ft 448 kts 186°
2026-05-05 19:28 53.83861 7.78638 36914 ft 448 kts 186°
2026-05-05 19:28 53.77616 7.78168 36908 ft 448 kts 186°
2026-05-05 19:29 53.71393 7.77698 36908 ft 448 kts 186°
2026-05-05 19:29 53.65161 7.77233 36908 ft 448 kts 186°
2026-05-05 19:30 53.58940 7.76769 36909 ft 448 kts 186°
2026-05-05 19:30 53.52715 7.76307 36909 ft 447 kts 186°
2026-05-05 19:31 53.46496 7.75847 36912 ft 447 kts 186°
2026-05-05 19:31 53.40274 7.75387 36904 ft 447 kts 185°
2026-05-05 19:32 53.34047 7.74928 36903 ft 447 kts 185°
2026-05-05 19:32 53.27878 7.74476 36899 ft 447 kts 185°
2026-05-05 19:33 53.21655 7.74024 36897 ft 447 kts 185°
2026-05-05 19:33 53.15434 7.73570 36891 ft 447 kts 185°
2026-05-05 19:34 53.09219 7.73118 36887 ft 447 kts 185°
2026-05-05 19:35 52.99880 7.72439 36882 ft 447 kts 185°
2026-05-05 19:35 52.93682 7.71961 36886 ft 447 kts 185°
2026-05-05 19:36 52.87500 7.71466 36876 ft 447 kts 185°
2026-05-05 19:36 52.81281 7.70972 36885 ft 447 kts 185°
2026-05-05 19:37 52.75106 7.70483 36875 ft 447 kts 185°
2026-05-05 19:37 52.68884 7.69995 36881 ft 447 kts 185°
2026-05-05 19:38 52.62701 7.69506 36874 ft 447 kts 185°
2026-05-05 19:38 52.56563 7.69026 36879 ft 447 kts 185°
2026-05-05 19:39 52.50353 7.68541 36865 ft 447 kts 185°
2026-05-05 19:39 52.44125 7.68056 36862 ft 447 kts 185°
2026-05-05 19:40 52.37910 7.67572 36857 ft 447 kts 185°
2026-05-05 19:40 52.31682 7.67090 36859 ft 447 kts 184°
2026-05-05 19:41 52.25458 7.66610 36857 ft 447 kts 184°
2026-05-05 19:41 52.19234 7.66127 36856 ft 448 kts 184°
2026-05-05 19:42 52.13048 7.65653 36856 ft 448 kts 184°
2026-05-05 19:42 52.06910 7.65188 36857 ft 448 kts 184°
2026-05-05 19:43 52.00667 7.64712 36854 ft 448 kts 184°
2026-05-05 19:43 51.94423 7.64237 36852 ft 448 kts 184°
2026-05-05 19:44 51.88243 7.63771 36847 ft 448 kts 184°
2026-05-05 19:44 51.81999 7.63295 36837 ft 448 kts 184°
2026-05-05 19:45 51.75764 7.62825 36835 ft 448 kts 184°
2026-05-05 19:45 51.69531 7.62356 36832 ft 448 kts 184°
2026-05-05 19:46 51.63289 7.61889 36829 ft 449 kts 184°
2026-05-05 19:46 51.57056 7.61420 36829 ft 449 kts 183°
2026-05-05 19:47 51.50951 7.60964 36827 ft 449 kts 183°
2026-05-05 19:47 51.44702 7.60498 36829 ft 449 kts 183°
2026-05-05 19:48 51.38469 7.60034 36830 ft 449 kts 183°
2026-05-05 19:48 51.32217 7.59573 36827 ft 449 kts 183°
2026-05-05 19:49 51.25968 7.59115 36824 ft 449 kts 183°
2026-05-05 19:49 51.19718 7.58654 36819 ft 449 kts 183°
2026-05-05 19:50 51.13507 7.58197 36655 ft 452 kts 183°
2026-05-05 19:50 51.10372 7.57967 36062 ft 448 kts 182°
2026-05-05 19:50 51.07257 7.57738 35455 ft 447 kts 182°
2026-05-05 19:50 51.04160 7.57513 34899 ft 445 kts 181°
2026-05-05 19:51 51.01073 7.57289 34364 ft 444 kts 181°
2026-05-05 19:51 50.97991 7.57064 33844 ft 443 kts 180°
2026-05-05 19:51 50.94910 7.56841 33254 ft 443 kts 180°
2026-05-05 19:51 50.91838 7.56618 32711 ft 445 kts 180°
2026-05-05 19:52 50.88716 7.56391 32167 ft 449 kts 180°
2026-05-05 19:52 50.85595 7.56166 31638 ft 452 kts 180°
2026-05-05 19:52 50.82432 7.55936 31069 ft 456 kts 180°
2026-05-05 19:52 50.79251 7.55706 30504 ft 459 kts 180°
2026-05-05 19:53 50.76048 7.55479 29903 ft 460 kts 180°
2026-05-05 19:53 50.72859 7.55350 29221 ft 456 kts 176°
2026-05-05 19:53 50.69724 7.55858 28535 ft 451 kts 169°
2026-05-05 19:53 50.66701 7.56806 27881 ft 447 kts 166°
2026-05-05 19:54 50.63683 7.57934 27233 ft 443 kts 165°
2026-05-05 19:54 50.60701 7.59086 26599 ft 440 kts 165°
2026-05-05 19:54 50.57725 7.60217 25973 ft 437 kts 166°
2026-05-05 19:54 50.54776 7.61305 25351 ft 434 kts 166°
2026-05-05 19:55 50.52837 7.62004 24935 ft 432 kts 167°
2026-05-05 19:55 50.49908 7.63045 24325 ft 429 kts 167°
2026-05-05 19:55 50.46995 7.64071 23708 ft 427 kts 167°
2026-05-05 19:55 50.44108 7.65081 23051 ft 424 kts 167°
2026-05-05 19:56 50.41240 7.66084 22383 ft 420 kts 167°
2026-05-05 19:56 50.38403 7.67071 21762 ft 416 kts 168°
2026-05-05 19:56 50.35586 7.68046 21158 ft 413 kts 168°
2026-05-05 19:56 50.32791 7.69013 20562 ft 410 kts 168°
2026-05-05 19:57 50.30008 7.69977 19980 ft 407 kts 168°
2026-05-05 19:57 50.27292 7.70916 19413 ft 404 kts 168°
2026-05-05 19:57 50.24525 7.71873 18820 ft 401 kts 168°
2026-05-05 19:57 50.21796 7.72818 18248 ft 411 kts 168°
2026-05-05 19:58 50.19027 7.73764 17601 ft 403 kts 169°
2026-05-05 19:58 50.16334 7.74686 16988 ft 394 kts 169°
2026-05-05 19:58 50.13678 7.75616 16415 ft 389 kts 169°
2026-05-05 19:58 50.11046 7.76530 15859 ft 386 kts 169°
2026-05-05 19:59 50.08438 7.77425 15325 ft 383 kts 169°
2026-05-05 19:59 50.05840 7.78314 14793 ft 380 kts 169°
2026-05-05 19:59 50.03263 7.79197 14259 ft 378 kts 169°
2026-05-05 19:59 50.00705 7.80073 13736 ft 376 kts 169°
2026-05-05 20:00 49.98158 7.80946 13119 ft 371 kts 169°
2026-05-05 20:00 49.95636 7.81808 12382 ft 369 kts 169°
2026-05-05 20:00 49.93147 7.82656 11692 ft 365 kts 169°
2026-05-05 20:00 49.90677 7.83503 11020 ft 362 kts 170°
2026-05-05 20:01 49.88256 7.84321 10714 ft 346 kts 169°
2026-05-05 20:01 49.85979 7.85092 10579 ft 326 kts 170°
2026-05-05 20:01 49.83821 7.85832 10451 ft 310 kts 170°
2026-05-05 20:01 49.81768 7.86527 10317 ft 296 kts 170°
2026-05-05 20:02 49.79802 7.87189 10193 ft 283 kts 171°
2026-05-05 20:02 49.77911 7.87822 9836 ft 279 kts 171°
2026-05-05 20:02 49.76015 7.88457 9421 ft 278 kts 171°
2026-05-05 20:02 49.74126 7.89093 8997 ft 277 kts 170°
2026-05-05 20:03 49.72248 7.89726 8609 ft 274 kts 170°
2026-05-05 20:03 49.70406 7.90350 7971 ft 271 kts 170°
2026-05-05 20:03 49.68565 7.90970 7285 ft 268 kts 171°
2026-05-05 20:03 49.66753 7.91580 6757 ft 264 kts 170°
2026-05-05 20:04 49.64979 7.92179 6411 ft 255 kts 171°
2026-05-05 20:04 49.63290 7.92750 6109 ft 240 kts 170°
2026-05-05 20:04 49.61713 7.93285 5952 ft 225 kts 171°
2026-05-05 20:04 49.60205 7.93793 5812 ft 223 kts 171°
2026-05-05 20:05 49.58692 7.94305 5686 ft 223 kts 171°
2026-05-05 20:05 49.57178 7.94811 5556 ft 222 kts 172°
2026-05-05 20:05 49.55676 7.95312 5423 ft 221 kts 171°
2026-05-05 20:05 49.54169 7.95820 5298 ft 220 kts 171°
2026-05-05 20:06 49.52671 7.96322 5193 ft 220 kts 172°
2026-05-05 20:06 49.51168 7.96818 5108 ft 220 kts 173°
2026-05-05 20:06 49.49673 7.96993 5015 ft 209 kts 188°
2026-05-05 20:06 49.48312 7.96436 4932 ft 201 kts 209°
2026-05-05 20:07 49.47207 7.95165 4859 ft 198 kts 229°
2026-05-05 20:07 49.46584 7.93327 4735 ft 197 kts 254°
2026-05-05 20:07 49.46286 7.91267 4539 ft 197 kts 256°
2026-05-05 20:07 49.46023 7.89276 4267 ft 183 kts 257°
2026-05-05 20:08 49.45839 7.87384 4014 ft 176 kts 260°
2026-05-05 20:08 49.45676 7.85516 3791 ft 176 kts 260°
2026-05-05 20:08 49.45512 7.83659 3558 ft 173 kts 259°
2026-05-05 20:08 49.45353 7.81820 3332 ft 174 kts 260°
2026-05-05 20:09 49.45187 7.80029 3099 ft 172 kts 259°
2026-05-05 20:09 49.45017 7.78160 2870 ft 173 kts 260°
2026-05-05 20:09 49.44872 7.76330 2633 ft 172 kts 260°
2026-05-05 20:09 49.44714 7.74559 2375 ft 161 kts 261°
2026-05-05 20:10 49.44565 7.72892 2175 ft 159 kts 259°
2026-05-05 20:10 49.44412 7.71189 1997 ft 161 kts 260°
2026-05-05 20:10 49.44265 7.69485 1738 ft 163 kts 262°
2026-05-05 20:10 49.44131 7.67742 1502 ft 165 kts 262°
2026-05-05 20:11 49.43975 7.65979 1285 ft 167 kts 262°
2026-05-05 20:11 49.43813 7.64221 1076 ft 167 kts 262°
2026-05-05 20:11 49.43657 7.62443 853 ft 167 kts 262°
2026-05-05 20:11 49.43514 7.60808 788 ft 131 kts 262°
2026-05-05 20:12 49.43418 7.59723 785 ft 73 kts 262°
2026-05-05 20:12 49.43364 7.59114 783 ft 47 kts 262°
2026-05-05 20:12 49.43331 7.58734 779 ft 23 kts 262°
2026-05-05 20:12 49.43312 7.58506 776 ft 16 kts 265°
2026-05-05 20:13 49.43355 7.58407 776 ft 10 kts 343°
2026-05-05 20:13 49.43420 7.58399 778 ft 10 kts 356°
2026-05-05 20:13 49.43500 7.58392 780 ft 13 kts 356°
2026-05-05 20:13 49.43604 7.58384 780 ft 17 kts 357°
2026-05-05 20:14 49.43721 7.58371 781 ft 16 kts 356°
2026-05-05 20:14 49.43824 7.58359 781 ft 13 kts 350°
2026-05-05 20:14 49.43881 7.58307 780 ft 10 kts 322°
2026-05-05 20:14 49.43940 7.58272 780 ft 9 kts 346°
2026-05-05 20:15 49.43994 7.58273 780 ft 8 kts 10°
2026-05-05 20:15 49.44026 7.58325 780 ft 6 kts 75°
2026-05-05 20:15 49.44032 7.58394 781 ft 8 kts 85°
2026-05-05 20:15 49.44047 7.58475 781 ft 6 kts 51°
2026-05-05 20:16 49.44085 7.58492 781 ft 5 kts
2026-05-05 20:16 49.44111 7.58491 781 ft 0 kts 359°